AMC-18

Last updated on Wed Nov 22 2023 00:02:38 GMT+0000 (Coordinated Universal Time)

1 29644U 06054B 23325.54848903 -.00000087 00000+0 00000+0 0 9990 2 29644 0.1917 139.4751 0008987 56.0334 256.2119 0.98859547 62108
UTC large
Height (km)
Speed (km/s)
/
Latitude / Longitude
Inclination (degrees)
Orbital Period (minutes)
Azimuth
Elevation
Range (km)
Doppler Factor

Next 0 passes for location: London (51.5072 / 0.1276)

Sorry there are no passes over London.